Tracking 21679 objects as of 30-Oct-2020
HD Live streaming from Space Station
objects crossing your sky now

TANSUO 1

Track TANSUO 1 now!
10-day predictions
TANSUO 1 is classified as:


NORAD ID: 28220
Int'l Code: 2004-012A
Perigee: 560.1 km
Apogee: 587.1 km
Inclination: 97.9 °
Period: 96.0 minutes
Semi major axis: 6944 km
RCS: 1.6951 m2 (large)
Launch date: April 18, 2004
Source: People's Republic of China (PRC)
Launch site: Xichang Space Center, China (XSC)
aabbcc
Your satellite tracking list
Your tracking list is empty




NASA's NSSDC Master Catalog

Two Line Element Set (TLE):
1 28220U 04012A   20304.16624524 -.00000402 +00000-0 -27130-4 0  9995
2 28220 097.8652 274.5443 0019460 158.0184 202.1878 15.00133584900792
Source of the keplerian elements: AFSPC